CSN1017 ZBAD-ZGGG

Flight info

Callsign CSN1017
Flight time 2h 27m
Altitude 34100
Route OMDEK W37 VIKEB V66 VESUX W45 IKAVO
Aircraft B772/H-SDE2E3FGHIJ5LORVWXY/LB1D1

Departure

Time 2026-04-27 11:04
Airport Beijing Daxing International Airport (ZBAD)

Arrival

Time 2026-04-27 13:32
Airport Guangzhou Baiyun International Airport (ZGGG)
Time Latitude Longitude Altitude Speed Heading
2026-04-27 09:45 39.50746 116.40362 97 ft 0 kts 98°
2026-04-27 10:52 39.50747 116.40350 97 ft 2 kts 98°
2026-04-27 10:52 39.50750 116.40331 97 ft 2 kts 98°
2026-04-27 10:52 39.50752 116.40311 97 ft 2 kts 98°
2026-04-27 10:52 39.50754 116.40292 97 ft 2 kts 98°
2026-04-27 10:53 39.50756 116.40273 97 ft 2 kts 81°
2026-04-27 10:53 39.50744 116.40243 97 ft 2 kts 35°
2026-04-27 10:53 39.50730 116.40234 97 ft 2 kts 11°
2026-04-27 10:54 39.50715 116.40234 97 ft 2 kts 347°
2026-04-27 10:54 39.50702 116.40241 97 ft 2 kts 322°
2026-04-27 10:54 39.50691 116.40253 97 ft 2 kts 321°
2026-04-27 10:54 39.50679 116.40265 97 ft 2 kts 323°
2026-04-27 10:55 39.50667 116.40276 97 ft 2 kts 323°
2026-04-27 10:55 39.50655 116.40288 97 ft 2 kts 322°
2026-04-27 10:55 39.50643 116.40300 97 ft 2 kts 322°
2026-04-27 10:55 39.50631 116.40312 97 ft 2 kts 322°
2026-04-27 10:56 39.50619 116.40324 97 ft 2 kts 322°
2026-04-27 10:56 39.50607 116.40335 97 ft 1 kts 322°
2026-04-27 10:56 39.50606 116.40336 97 ft 0 kts 322°
2026-04-27 10:58 39.50615 116.40327 97 ft 8 kts 322°
2026-04-27 10:58 39.50641 116.40214 97 ft 15 kts 265°
2026-04-27 10:58 39.50624 116.40072 97 ft 16 kts 256°
2026-04-27 10:58 39.50528 116.40037 97 ft 16 kts 167°
2026-04-27 10:59 39.50410 116.40070 97 ft 18 kts 167°
2026-04-27 10:59 39.50283 116.40084 97 ft 18 kts 179°
2026-04-27 10:59 39.50158 116.40104 97 ft 19 kts 172°
2026-04-27 11:00 39.49869 116.40156 97 ft 21 kts 171°
2026-04-27 11:00 39.49719 116.40166 97 ft 22 kts 179°
2026-04-27 11:00 39.49562 116.40189 97 ft 23 kts 172°
2026-04-27 11:00 39.49402 116.40218 97 ft 23 kts 171°
2026-04-27 11:01 39.49234 116.40243 97 ft 24 kts 177°
2026-04-27 11:01 39.49063 116.40269 97 ft 25 kts 172°
2026-04-27 11:01 39.48887 116.40299 97 ft 25 kts 172°
2026-04-27 11:01 39.48750 116.40324 97 ft 13 kts 172°
2026-04-27 11:02 39.48653 116.40342 97 ft 14 kts 172°
2026-04-27 11:02 39.48550 116.40359 97 ft 7 kts 172°
2026-04-27 11:02 39.48494 116.40368 97 ft 9 kts 173°
2026-04-27 11:02 39.48426 116.40348 97 ft 11 kts 216°
2026-04-27 11:03 39.48410 116.40250 97 ft 12 kts 273°
2026-04-27 11:03 39.48444 116.40152 97 ft 12 kts 320°
2026-04-27 11:03 39.48472 116.40134 97 ft 0 kts 345°
2026-04-27 11:04 39.48610 116.40114 97 ft 64 kts 350°
2026-04-27 11:04 39.49358 116.40007 99 ft 150 kts 355°
2026-04-27 11:04 39.50404 116.39909 776 ft 169 kts 356°
2026-04-27 11:04 39.51464 116.39693 1788 ft 178 kts 349°
2026-04-27 11:05 39.52808 116.39407 2820 ft 197 kts 351°
2026-04-27 11:05 39.54244 116.39161 3443 ft 228 kts 352°
2026-04-27 11:05 39.55868 116.38891 4006 ft 267 kts 352°
2026-04-27 11:05 39.57745 116.38593 4568 ft 304 kts 352°
2026-04-27 11:06 39.59878 116.38258 5123 ft 337 kts 352°
2026-04-27 11:06 39.62206 116.37862 5658 ft 364 kts 348°
2026-04-27 11:06 39.64519 116.36865 6153 ft 330 kts 332°
2026-04-27 11:06 39.66222 116.35172 6579 ft 291 kts 310°
2026-04-27 11:07 39.67166 116.32970 7016 ft 276 kts 288°
2026-04-27 11:07 39.67500 116.30574 7482 ft 271 kts 275°
2026-04-27 11:07 39.67575 116.28120 7976 ft 269 kts 270°
2026-04-27 11:07 39.67503 116.25714 8471 ft 270 kts 267°
2026-04-27 11:08 39.67371 116.23267 8976 ft 272 kts 266°
2026-04-27 11:08 39.67224 116.20832 9477 ft 274 kts 265°
2026-04-27 11:08 39.67072 116.18362 9983 ft 275 kts 265°
2026-04-27 11:08 39.66919 116.15885 10486 ft 277 kts 265°
2026-04-27 11:09 39.66766 116.13405 10986 ft 279 kts 265°
2026-04-27 11:09 39.66608 116.10885 11489 ft 281 kts 264°
2026-04-27 11:09 39.66280 116.08395 11987 ft 283 kts 255°
2026-04-27 11:09 39.65642 116.05979 12488 ft 284 kts 246°
2026-04-27 11:10 39.64713 116.03735 12989 ft 284 kts 237°
2026-04-27 11:10 39.63501 116.01688 13495 ft 285 kts 229°
2026-04-27 11:10 39.62076 115.99955 13990 ft 287 kts 220°
2026-04-27 11:10 39.60423 115.98517 14491 ft 289 kts 211°
2026-04-27 11:11 39.58573 115.97429 14998 ft 293 kts 203°
2026-04-27 11:11 39.56611 115.96755 15498 ft 297 kts 194°
2026-04-27 11:11 39.54550 115.96509 15998 ft 303 kts 185°
2026-04-27 11:11 39.52434 115.96712 16502 ft 309 kts 177°
2026-04-27 11:12 39.50299 115.97136 17008 ft 312 kts 178°
2026-04-27 11:12 39.48143 115.97527 17515 ft 313 kts 179°
2026-04-27 11:12 39.46002 115.97871 18014 ft 315 kts 180°
2026-04-27 11:12 39.43818 115.98202 18520 ft 317 kts 180°
2026-04-27 11:13 39.41650 115.98525 19018 ft 319 kts 181°
2026-04-27 11:13 39.39423 115.98855 19527 ft 322 kts 181°
2026-04-27 11:13 39.37215 115.99182 20028 ft 324 kts 181°
2026-04-27 11:13 39.34972 115.99514 20533 ft 326 kts 182°
2026-04-27 11:14 39.32722 115.99847 21036 ft 328 kts 182°
2026-04-27 11:14 39.30454 116.00182 21539 ft 331 kts 182°
2026-04-27 11:14 39.28176 116.00519 22041 ft 333 kts 182°
2026-04-27 11:14 39.25871 116.00860 22544 ft 336 kts 183°
2026-04-27 11:15 39.23554 116.01202 23047 ft 339 kts 183°
2026-04-27 11:15 39.21271 116.01537 23539 ft 344 kts 183°
2026-04-27 11:15 39.18906 116.01884 24042 ft 349 kts 184°
2026-04-27 11:15 39.16495 116.02239 24547 ft 353 kts 184°
2026-04-27 11:16 39.14070 116.02573 25049 ft 357 kts 185°
2026-04-27 11:16 39.11616 116.02900 25551 ft 361 kts 185°
2026-04-27 11:16 39.09115 116.03234 26054 ft 364 kts 185°
2026-04-27 11:16 39.06583 116.03574 26561 ft 368 kts 185°
2026-04-27 11:17 39.04059 116.03914 27059 ft 371 kts 185°
2026-04-27 11:17 39.01490 116.04259 27558 ft 374 kts 186°
2026-04-27 11:17 38.98920 116.04604 28052 ft 376 kts 186°
2026-04-27 11:17 38.96326 116.04953 28548 ft 379 kts 186°
2026-04-27 11:18 38.93690 116.05308 29050 ft 380 kts 186°
2026-04-27 11:18 38.91087 116.05657 29547 ft 382 kts 186°
2026-04-27 11:18 38.88441 116.06014 30047 ft 383 kts 186°
2026-04-27 11:18 38.85784 116.06370 30548 ft 384 kts 186°
2026-04-27 11:19 38.83129 116.06727 31055 ft 384 kts 186°
2026-04-27 11:19 38.80499 116.07079 31560 ft 384 kts 186°
2026-04-27 11:19 38.77841 116.07436 32065 ft 384 kts 186°
2026-04-27 11:19 38.75236 116.07784 32568 ft 384 kts 187°
2026-04-27 11:20 38.72865 116.08101 33023 ft 383 kts 187°
2026-04-27 11:20 38.70028 116.08478 33567 ft 381 kts 188°
2026-04-27 11:20 38.67451 116.08588 34068 ft 369 kts 195°
2026-04-27 11:20 38.64931 116.08306 34375 ft 363 kts 201°
2026-04-27 11:21 38.60064 116.06584 34405 ft 365 kts 212°
2026-04-27 11:21 38.55201 116.04190 34402 ft 384 kts 211°
2026-04-27 11:22 38.50098 116.01729 34402 ft 401 kts 211°
2026-04-27 11:22 38.47443 116.00455 34215 ft 414 kts 211°
2026-04-27 11:22 38.44730 115.99159 34196 ft 423 kts 210°
2026-04-27 11:23 38.39168 115.96510 34191 ft 437 kts 210°
2026-04-27 11:23 38.33372 115.93758 34189 ft 450 kts 210°
2026-04-27 11:24 38.27375 115.91260 34184 ft 467 kts 201°
2026-04-27 11:24 38.20900 115.90129 34186 ft 476 kts 197°
2026-04-27 11:25 38.14318 115.89107 34181 ft 476 kts 197°
2026-04-27 11:25 38.07783 115.88090 34182 ft 477 kts 197°
2026-04-27 11:26 38.01233 115.87073 34183 ft 476 kts 197°
2026-04-27 11:26 37.94697 115.86061 34186 ft 476 kts 197°
2026-04-27 11:27 37.88145 115.85037 34184 ft 476 kts 197°
2026-04-27 11:27 37.81610 115.83969 34186 ft 474 kts 198°
2026-04-27 11:28 37.75102 115.82902 34182 ft 475 kts 198°
2026-04-27 11:28 37.71892 115.82078 34184 ft 464 kts 206°
2026-04-27 11:28 37.68919 115.80692 34186 ft 455 kts 212°
2026-04-27 11:29 37.63190 115.77444 34182 ft 450 kts 213°
2026-04-27 11:29 37.57467 115.74176 34185 ft 453 kts 213°
2026-04-27 11:30 37.51762 115.70928 34180 ft 451 kts 213°
2026-04-27 11:30 37.46070 115.67691 34180 ft 451 kts 213°
2026-04-27 11:31 37.40390 115.64430 34179 ft 451 kts 214°
2026-04-27 11:31 37.34754 115.61053 34179 ft 452 kts 214°
2026-04-27 11:32 37.29109 115.57681 34179 ft 451 kts 214°
2026-04-27 11:32 37.23438 115.54303 34177 ft 451 kts 214°
2026-04-27 11:33 37.17801 115.50954 34178 ft 450 kts 214°
2026-04-27 11:33 37.12154 115.47605 34174 ft 452 kts 214°
2026-04-27 11:34 37.06467 115.44237 34177 ft 455 kts 213°
2026-04-27 11:34 37.00738 115.40850 34175 ft 460 kts 212°
2026-04-27 11:35 36.94928 115.37423 34177 ft 465 kts 212°
2026-04-27 11:35 36.89104 115.33995 34192 ft 466 kts 211°
2026-04-27 11:36 36.83244 115.30553 34195 ft 467 kts 211°
2026-04-27 11:36 36.77395 115.27123 34192 ft 467 kts 211°
2026-04-27 11:37 36.71522 115.23682 34190 ft 466 kts 211°
2026-04-27 11:37 36.65669 115.20256 34193 ft 468 kts 211°
2026-04-27 11:38 36.59790 115.16821 34192 ft 467 kts 211°
2026-04-27 11:38 36.53933 115.13404 34188 ft 467 kts 211°
2026-04-27 11:39 36.48075 115.10002 34188 ft 467 kts 211°
2026-04-27 11:39 36.42208 115.06602 34188 ft 468 kts 211°
2026-04-27 11:40 36.36215 115.03424 34187 ft 475 kts 203°
2026-04-27 11:40 36.32970 115.02554 34184 ft 486 kts 195°
2026-04-27 11:40 36.29629 115.02137 34187 ft 488 kts 192°
2026-04-27 11:41 36.22861 115.01451 34177 ft 489 kts 192°
2026-04-27 11:41 36.16132 115.00771 34169 ft 489 kts 192°
2026-04-27 11:42 36.09362 115.00085 34168 ft 488 kts 192°
2026-04-27 11:42 36.02639 114.99401 34166 ft 490 kts 192°
2026-04-27 11:43 35.95888 114.98716 34164 ft 489 kts 192°
2026-04-27 11:43 35.89167 114.98034 34164 ft 488 kts 192°
2026-04-27 11:44 35.82391 114.97346 34167 ft 489 kts 192°
2026-04-27 11:44 35.75624 114.96661 34166 ft 489 kts 192°
2026-04-27 11:45 35.69990 114.96091 34166 ft 489 kts 192°
2026-04-27 11:45 35.62149 114.95300 34167 ft 489 kts 192°
2026-04-27 11:46 35.55384 114.94618 34164 ft 489 kts 192°
2026-04-27 11:46 35.48635 114.93939 34166 ft 490 kts 192°
2026-04-27 11:47 35.41845 114.93259 34166 ft 489 kts 192°
2026-04-27 11:47 35.35119 114.92584 34166 ft 489 kts 192°
2026-04-27 11:48 35.28334 114.91905 34163 ft 488 kts 192°
2026-04-27 11:48 35.21620 114.91234 34166 ft 489 kts 192°
2026-04-27 11:49 35.14864 114.90560 34163 ft 489 kts 192°
2026-04-27 11:49 35.08062 114.89883 34166 ft 490 kts 192°
2026-04-27 11:50 35.01329 114.89213 34162 ft 489 kts 192°
2026-04-27 11:50 34.94569 114.88542 34162 ft 488 kts 191°
2026-04-27 11:51 34.87827 114.87874 34165 ft 489 kts 190°
2026-04-27 11:52 34.77712 114.86874 34167 ft 488 kts 190°
2026-04-27 11:52 34.70973 114.86209 34166 ft 489 kts 190°
2026-04-27 11:53 34.64207 114.85543 34166 ft 487 kts 190°
2026-04-27 11:53 34.57475 114.84881 34168 ft 489 kts 190°
2026-04-27 11:54 34.50755 114.84222 34165 ft 488 kts 190°
2026-04-27 11:54 34.44003 114.83559 34162 ft 488 kts 190°
2026-04-27 11:55 34.37272 114.82900 34163 ft 488 kts 190°
2026-04-27 11:55 34.30549 114.82243 34165 ft 489 kts 190°
2026-04-27 11:56 34.23808 114.81586 34163 ft 487 kts 190°
2026-04-27 11:56 34.17075 114.80930 34162 ft 488 kts 190°
2026-04-27 11:57 34.10309 114.80277 34162 ft 489 kts 190°
2026-04-27 11:57 34.03591 114.79631 34165 ft 488 kts 190°
2026-04-27 11:58 33.96867 114.78986 34162 ft 488 kts 190°
2026-04-27 11:58 33.90089 114.78336 34163 ft 488 kts 190°
2026-04-27 11:59 33.83360 114.77692 34164 ft 488 kts 190°
2026-04-27 11:59 33.76647 114.77021 34166 ft 487 kts 191°
2026-04-27 12:00 33.69907 114.76345 34162 ft 489 kts 190°
2026-04-27 12:00 33.63163 114.75718 34167 ft 488 kts 190°
2026-04-27 12:01 33.56414 114.75082 34164 ft 487 kts 191°
2026-04-27 12:01 33.49663 114.74380 34162 ft 488 kts 191°
2026-04-27 12:02 33.42939 114.73709 34162 ft 488 kts 190°
2026-04-27 12:02 33.36169 114.73056 34162 ft 488 kts 190°
2026-04-27 12:03 33.29431 114.72407 34166 ft 487 kts 190°
2026-04-27 12:03 33.22703 114.71759 34161 ft 487 kts 190°
2026-04-27 12:04 33.15997 114.71104 34164 ft 488 kts 191°
2026-04-27 12:04 33.09234 114.70436 34160 ft 489 kts 190°
2026-04-27 12:05 33.02481 114.69768 34157 ft 494 kts 189°
2026-04-27 12:05 32.95614 114.69090 34164 ft 498 kts 189°
2026-04-27 12:06 32.88824 114.68424 34160 ft 500 kts 189°
2026-04-27 12:06 32.81960 114.67770 34169 ft 498 kts 189°
2026-04-27 12:07 32.75049 114.67119 34162 ft 499 kts 188°
2026-04-27 12:07 32.68152 114.66469 34138 ft 499 kts 188°
2026-04-27 12:08 32.61250 114.65820 34122 ft 498 kts 189°
2026-04-27 12:08 32.54366 114.65173 34120 ft 499 kts 189°
2026-04-27 12:09 32.47475 114.64525 34122 ft 499 kts 188°
2026-04-27 12:09 32.40579 114.63879 34120 ft 498 kts 189°
2026-04-27 12:10 32.33701 114.63223 34118 ft 498 kts 189°
2026-04-27 12:10 32.26837 114.62552 34123 ft 498 kts 189°
2026-04-27 12:11 32.19933 114.61880 34118 ft 498 kts 189°
2026-04-27 12:11 32.13080 114.61214 34137 ft 498 kts 189°
2026-04-27 12:12 32.06195 114.60545 34144 ft 499 kts 189°
2026-04-27 12:12 31.99301 114.59878 34142 ft 498 kts 189°
2026-04-27 12:13 31.92420 114.59212 34143 ft 498 kts 189°
2026-04-27 12:13 31.85558 114.58549 34142 ft 498 kts 189°
2026-04-27 12:14 31.78669 114.57885 34142 ft 499 kts 189°
2026-04-27 12:14 31.71785 114.57223 34143 ft 498 kts 189°
2026-04-27 12:15 31.64902 114.56561 34143 ft 499 kts 189°
2026-04-27 12:15 31.58033 114.55904 34145 ft 498 kts 189°
2026-04-27 12:16 31.51134 114.55245 34140 ft 499 kts 189°
2026-04-27 12:16 31.44258 114.54589 34142 ft 498 kts 189°
2026-04-27 12:17 31.37371 114.53932 34143 ft 499 kts 189°
2026-04-27 12:17 31.30494 114.53278 34143 ft 499 kts 189°
2026-04-27 12:18 31.23753 114.51969 34141 ft 492 kts 201°
2026-04-27 12:18 31.17545 114.48843 34138 ft 485 kts 209°
2026-04-27 12:19 31.11422 114.45455 34139 ft 486 kts 209°
2026-04-27 12:19 31.05368 114.42107 34140 ft 487 kts 209°
2026-04-27 12:20 30.99252 114.38726 34137 ft 488 kts 208°
2026-04-27 12:20 30.93110 114.35334 34140 ft 490 kts 208°
2026-04-27 12:21 30.86932 114.32047 34147 ft 494 kts 206°
2026-04-27 12:21 30.80683 114.28788 34148 ft 493 kts 206°
2026-04-27 12:22 30.74481 114.25436 34146 ft 493 kts 207°
2026-04-27 12:22 30.68301 114.22073 34147 ft 493 kts 207°
2026-04-27 12:23 30.62112 114.18713 34147 ft 493 kts 207°
2026-04-27 12:23 30.55893 114.15343 34146 ft 493 kts 207°
2026-04-27 12:24 30.49697 114.11991 34147 ft 493 kts 207°
2026-04-27 12:24 30.43526 114.08659 34146 ft 494 kts 207°
2026-04-27 12:25 30.37309 114.05308 34147 ft 493 kts 207°
2026-04-27 12:25 30.31100 114.01965 34144 ft 493 kts 207°
2026-04-27 12:26 30.24908 113.98636 34144 ft 493 kts 207°
2026-04-27 12:26 30.18730 113.95324 34144 ft 493 kts 207°
2026-04-27 12:27 30.13524 113.92539 34144 ft 494 kts 207°
2026-04-27 12:27 30.06291 113.88675 34146 ft 493 kts 207°
2026-04-27 12:28 30.00089 113.85366 34142 ft 493 kts 207°
2026-04-27 12:28 29.93902 113.82070 34145 ft 493 kts 207°
2026-04-27 12:29 29.87552 113.79083 34142 ft 496 kts 197°
2026-04-27 12:29 29.80726 113.78014 34144 ft 500 kts 186°
2026-04-27 12:30 29.73815 113.77532 34144 ft 501 kts 186°
2026-04-27 12:30 29.66880 113.77054 34144 ft 500 kts 186°
2026-04-27 12:31 29.60001 113.76578 34146 ft 500 kts 186°
2026-04-27 12:31 29.54230 113.76179 34137 ft 501 kts 186°
2026-04-27 12:32 29.47281 113.75697 34117 ft 501 kts 186°
2026-04-27 12:32 29.39206 113.75138 34100 ft 501 kts 186°
2026-04-27 12:33 29.32283 113.74660 34103 ft 501 kts 186°
2026-04-27 12:33 29.25384 113.74184 34103 ft 501 kts 186°
2026-04-27 12:34 29.18410 113.74033 34103 ft 503 kts 181°
2026-04-27 12:34 29.11438 113.74311 34100 ft 503 kts 181°
2026-04-27 12:35 29.04509 113.74556 34101 ft 499 kts 180°
2026-04-27 12:35 28.97593 113.74781 34101 ft 497 kts 180°
2026-04-27 12:36 28.91863 113.74959 34099 ft 498 kts 180°
2026-04-27 12:36 28.83836 113.75200 34104 ft 498 kts 180°
2026-04-27 12:37 28.76924 113.75404 34104 ft 498 kts 180°
2026-04-27 12:37 28.70045 113.75243 34105 ft 496 kts 185°
2026-04-27 12:38 28.63178 113.74732 34103 ft 496 kts 185°
2026-04-27 12:38 28.56358 113.74226 34102 ft 496 kts 185°
2026-04-27 12:39 28.50624 113.73803 34102 ft 496 kts 185°
2026-04-27 12:39 28.42619 113.73214 34102 ft 497 kts 185°
2026-04-27 12:40 28.35734 113.72709 34101 ft 496 kts 185°
2026-04-27 12:40 28.28902 113.72212 34103 ft 497 kts 185°
2026-04-27 12:41 28.21998 113.71712 34104 ft 496 kts 185°
2026-04-27 12:41 28.15172 113.71193 34101 ft 496 kts 187°
2026-04-27 12:42 28.09601 113.69760 34103 ft 494 kts 200°
2026-04-27 12:42 28.02065 113.66726 34101 ft 494 kts 200°
2026-04-27 12:43 27.95608 113.64105 34099 ft 493 kts 200°
2026-04-27 12:43 27.90254 113.61935 34100 ft 494 kts 200°
2026-04-27 12:44 27.82733 113.58891 34103 ft 494 kts 201°
2026-04-27 12:44 27.76294 113.56290 34102 ft 494 kts 200°
2026-04-27 12:45 27.69855 113.53691 34106 ft 494 kts 200°
2026-04-27 12:45 27.63400 113.51105 34101 ft 494 kts 199°
2026-04-27 12:46 27.56847 113.48875 34103 ft 494 kts 198°
2026-04-27 12:46 27.50291 113.46671 34101 ft 494 kts 198°
2026-04-27 12:47 27.43713 113.44448 34103 ft 494 kts 198°
2026-04-27 12:47 27.37157 113.42227 34101 ft 494 kts 198°
2026-04-27 12:48 27.30533 113.40228 34103 ft 495 kts 193°
2026-04-27 12:48 27.23814 113.38724 34099 ft 495 kts 192°
2026-04-27 12:49 27.17113 113.37234 34101 ft 495 kts 192°
2026-04-27 12:49 27.10376 113.35732 34101 ft 495 kts 193°
2026-04-27 12:50 27.03646 113.34232 34100 ft 495 kts 192°
2026-04-27 12:50 26.96864 113.32722 34104 ft 501 kts 192°
2026-04-27 12:51 26.90025 113.31200 34104 ft 507 kts 192°
2026-04-27 12:51 26.84271 113.29920 34104 ft 508 kts 192°
2026-04-27 12:52 26.76195 113.28127 34104 ft 508 kts 192°
2026-04-27 12:52 26.70422 113.26847 34104 ft 508 kts 192°
2026-04-27 12:53 26.58950 113.24307 34104 ft 508 kts 192°
2026-04-27 12:53 26.52006 113.22772 34104 ft 508 kts 192°
2026-04-27 12:54 26.45128 113.21252 34104 ft 508 kts 192°
2026-04-27 12:54 26.38227 113.19730 34104 ft 508 kts 192°
2026-04-27 12:55 26.31293 113.18203 34104 ft 508 kts 192°
2026-04-27 12:55 26.24367 113.16679 34104 ft 508 kts 192°
2026-04-27 12:56 26.17486 113.15167 34104 ft 508 kts 192°
2026-04-27 12:56 26.10538 113.13642 34104 ft 508 kts 192°
2026-04-27 12:57 26.03664 113.12135 34008 ft 510 kts 192°
2026-04-27 12:57 26.00183 113.11372 33650 ft 509 kts 192°
2026-04-27 12:57 25.96718 113.10614 33277 ft 506 kts 192°
2026-04-27 12:58 25.93322 113.09871 32910 ft 502 kts 192°
2026-04-27 12:58 25.91025 113.09369 32660 ft 500 kts 192°
2026-04-27 12:58 25.86500 113.08380 32163 ft 496 kts 192°
2026-04-27 12:58 25.83133 113.07645 31791 ft 494 kts 192°
2026-04-27 12:59 25.79784 113.06914 31419 ft 492 kts 192°
2026-04-27 12:59 25.76431 113.06283 31045 ft 490 kts 186°
2026-04-27 12:59 25.73079 113.06082 30677 ft 488 kts 182°
2026-04-27 12:59 25.69673 113.05989 30302 ft 486 kts 182°
2026-04-27 13:00 25.66343 113.05906 29933 ft 484 kts 182°
2026-04-27 13:00 25.62989 113.05823 29559 ft 481 kts 182°
2026-04-27 13:00 25.59681 113.05740 29189 ft 479 kts 182°
2026-04-27 13:00 25.56349 113.05656 28815 ft 477 kts 182°
2026-04-27 13:01 25.53048 113.05573 28442 ft 474 kts 182°
2026-04-27 13:01 25.49797 113.05492 28071 ft 472 kts 182°
2026-04-27 13:01 25.46528 113.05409 27698 ft 470 kts 182°
2026-04-27 13:01 25.43273 113.05327 27326 ft 468 kts 182°
2026-04-27 13:02 25.40037 113.05245 26953 ft 465 kts 182°
2026-04-27 13:02 25.36836 113.05164 26583 ft 463 kts 182°
2026-04-27 13:02 25.33641 113.05084 26212 ft 461 kts 182°
2026-04-27 13:02 25.30446 113.05003 25840 ft 459 kts 182°
2026-04-27 13:03 25.27290 113.04923 25470 ft 457 kts 182°
2026-04-27 13:03 25.24109 113.04843 25093 ft 455 kts 182°
2026-04-27 13:03 25.20988 113.04765 24645 ft 453 kts 182°
2026-04-27 13:03 25.17855 113.04685 24175 ft 450 kts 182°
2026-04-27 13:04 25.14755 113.04607 23705 ft 446 kts 182°
2026-04-27 13:04 25.11659 113.04530 23233 ft 444 kts 182°
2026-04-27 13:04 25.08614 113.04452 22767 ft 441 kts 181°
2026-04-27 13:04 25.05539 113.04376 22294 ft 439 kts 181°
2026-04-27 13:05 25.02516 113.04299 21826 ft 437 kts 181°
2026-04-27 13:05 24.99493 113.04223 21356 ft 434 kts 181°
2026-04-27 13:05 24.96495 113.04147 20887 ft 432 kts 181°
2026-04-27 13:05 24.93536 113.04073 20422 ft 429 kts 181°
2026-04-27 13:06 24.90552 113.03999 19948 ft 426 kts 181°
2026-04-27 13:06 24.87699 113.03927 19491 ft 424 kts 181°
2026-04-27 13:06 24.84778 113.03854 19018 ft 421 kts 181°
2026-04-27 13:06 24.81848 113.03780 18542 ft 418 kts 181°
2026-04-27 13:07 24.78960 113.03708 18069 ft 415 kts 181°
2026-04-27 13:07 24.76088 113.03636 17596 ft 413 kts 181°
2026-04-27 13:07 24.73272 113.03566 17130 ft 410 kts 181°
2026-04-27 13:07 24.70437 113.03495 16657 ft 408 kts 181°
2026-04-27 13:08 24.67593 113.03424 16180 ft 405 kts 181°
2026-04-27 13:08 24.64814 113.03355 15711 ft 403 kts 181°
2026-04-27 13:08 24.62947 113.03308 15394 ft 401 kts 181°
2026-04-27 13:08 24.59268 113.03216 14766 ft 397 kts 181°
2026-04-27 13:09 24.56546 113.03148 14298 ft 395 kts 181°
2026-04-27 13:09 24.53818 113.03080 13826 ft 392 kts 181°
2026-04-27 13:09 24.51112 113.03012 13356 ft 389 kts 181°
2026-04-27 13:09 24.48412 113.02945 12884 ft 387 kts 181°
2026-04-27 13:10 24.45748 113.03106 12413 ft 385 kts 172°
2026-04-27 13:10 24.43154 113.03715 11941 ft 374 kts 166°
2026-04-27 13:10 24.40677 113.04381 11478 ft 361 kts 166°
2026-04-27 13:10 24.38301 113.05024 11021 ft 350 kts 166°
2026-04-27 13:11 24.36735 113.05373 10716 ft 344 kts 169°
2026-04-27 13:11 24.33645 113.05927 10098 ft 333 kts 170°
2026-04-27 13:11 24.31402 113.06333 9637 ft 326 kts 169°
2026-04-27 13:11 24.29178 113.06748 9168 ft 320 kts 169°
2026-04-27 13:12 24.27025 113.07156 8706 ft 315 kts 169°
2026-04-27 13:12 24.25592 113.07430 8392 ft 312 kts 169°
2026-04-27 13:12 24.22771 113.07970 7766 ft 307 kts 168°
2026-04-27 13:12 24.20689 113.08369 7296 ft 303 kts 168°
2026-04-27 13:13 24.18632 113.08763 6825 ft 300 kts 168°
2026-04-27 13:13 24.16587 113.09154 6352 ft 297 kts 168°
2026-04-27 13:13 24.14564 113.09541 5923 ft 293 kts 168°
2026-04-27 13:13 24.12633 113.09910 5825 ft 278 kts 168°
2026-04-27 13:14 24.10787 113.10263 5816 ft 261 kts 168°
2026-04-27 13:14 24.09054 113.10596 5815 ft 247 kts 168°
2026-04-27 13:14 24.07401 113.10914 5817 ft 238 kts 168°
2026-04-27 13:14 24.05770 113.11228 5819 ft 236 kts 168°
2026-04-27 13:15 24.04170 113.11536 5820 ft 235 kts 168°
2026-04-27 13:15 24.02557 113.11845 5820 ft 235 kts 168°
2026-04-27 13:15 24.00950 113.12154 5820 ft 235 kts 168°
2026-04-27 13:15 23.99339 113.12463 5820 ft 235 kts 168°
2026-04-27 13:16 23.97737 113.12770 5821 ft 235 kts 168°
2026-04-27 13:16 23.96120 113.13080 5821 ft 235 kts 168°
2026-04-27 13:16 23.94517 113.13387 5821 ft 235 kts 168°
2026-04-27 13:16 23.92901 113.13697 5821 ft 235 kts 168°
2026-04-27 13:17 23.91297 113.14005 5821 ft 235 kts 168°
2026-04-27 13:17 23.89691 113.14312 5820 ft 235 kts 168°
2026-04-27 13:17 23.88334 113.14571 5820 ft 235 kts 168°
2026-04-27 13:17 23.86578 113.14957 5814 ft 230 kts 157°
2026-04-27 13:18 23.85273 113.15898 5812 ft 224 kts 128°
2026-04-27 13:18 23.84528 113.17368 5818 ft 221 kts 108°
2026-04-27 13:18 23.84271 113.18214 5819 ft 221 kts 105°
2026-04-27 13:18 23.84100 113.18851 5781 ft 224 kts 104°
2026-04-27 13:19 23.83790 113.20123 5688 ft 233 kts 104°
2026-04-27 13:19 23.83533 113.21235 5567 ft 235 kts 106°
2026-04-27 13:19 23.83357 113.22002 5446 ft 239 kts 105°
2026-04-27 13:19 23.82965 113.23712 5315 ft 239 kts 103°
2026-04-27 13:20 23.82577 113.25408 5143 ft 235 kts 103°
2026-04-27 13:20 23.82186 113.27119 5038 ft 230 kts 104°
2026-04-27 13:20 23.81934 113.28219 5010 ft 225 kts 103°
2026-04-27 13:20 23.81473 113.30231 5014 ft 218 kts 104°
2026-04-27 13:21 23.81111 113.31812 4976 ft 212 kts 104°
2026-04-27 13:21 23.80752 113.33376 4996 ft 210 kts 104°
2026-04-27 13:21 23.80401 113.34904 4972 ft 208 kts 104°
2026-04-27 13:21 23.80050 113.36430 4965 ft 202 kts 103°
2026-04-27 13:22 23.79721 113.37858 4906 ft 186 kts 103°
2026-04-27 13:22 23.79414 113.39180 4894 ft 175 kts 106°
2026-04-27 13:22 23.78859 113.40308 4901 ft 172 kts 128°
2026-04-27 13:22 23.77904 113.41099 4891 ft 173 kts 152°
2026-04-27 13:23 23.76745 113.41383 4890 ft 176 kts 176°
2026-04-27 13:23 23.75519 113.41186 4895 ft 177 kts 189°
2026-04-27 13:23 23.74314 113.40887 4897 ft 178 kts 191°
2026-04-27 13:23 23.73115 113.40564 4897 ft 178 kts 192°
2026-04-27 13:24 23.71928 113.40241 4897 ft 178 kts 192°
2026-04-27 13:24 23.70728 113.39916 4897 ft 177 kts 192°
2026-04-27 13:24 23.69530 113.39591 4897 ft 178 kts 192°
2026-04-27 13:24 23.68336 113.39268 4897 ft 177 kts 192°
2026-04-27 13:25 23.67140 113.38944 4897 ft 178 kts 192°
2026-04-27 13:25 23.65934 113.38616 4897 ft 178 kts 192°
2026-04-27 13:25 23.64733 113.38289 4897 ft 177 kts 192°
2026-04-27 13:25 23.63540 113.37962 4736 ft 177 kts 192°
2026-04-27 13:26 23.62354 113.37639 4512 ft 176 kts 192°
2026-04-27 13:26 23.61171 113.37318 4287 ft 173 kts 192°
2026-04-27 13:26 23.60264 113.37073 4115 ft 174 kts 192°
2026-04-27 13:26 23.59301 113.36813 3929 ft 173 kts 192°
2026-04-27 13:27 23.58473 113.36588 3768 ft 172 kts 192°
2026-04-27 13:27 23.57590 113.36350 3596 ft 171 kts 192°
2026-04-27 13:27 23.56273 113.35993 3337 ft 170 kts 192°
2026-04-27 13:27 23.54729 113.35575 3031 ft 169 kts 192°
2026-04-27 13:28 23.53592 113.35267 2805 ft 168 kts 192°
2026-04-27 13:28 23.52460 113.34961 2577 ft 167 kts 192°
2026-04-27 13:28 23.51347 113.34660 2353 ft 166 kts 192°
2026-04-27 13:28 23.50224 113.34357 2126 ft 166 kts 192°
2026-04-27 13:29 23.49105 113.34054 1898 ft 165 kts 192°
2026-04-27 13:29 23.48004 113.33756 1673 ft 164 kts 192°
2026-04-27 13:29 23.46903 113.33459 1447 ft 164 kts 192°
2026-04-27 13:29 23.45791 113.33158 1219 ft 163 kts 192°
2026-04-27 13:30 23.44712 113.32867 997 ft 162 kts 192°
2026-04-27 13:30 23.43737 113.32604 797 ft 162 kts 193°
2026-04-27 13:30 23.42796 113.32349 606 ft 161 kts 193°
2026-04-27 13:30 23.41488 113.31996 339 ft 161 kts 193°
2026-04-27 13:31 23.40335 113.31686 141 ft 158 kts 193°
2026-04-27 13:31 23.39331 113.31423 64 ft 153 kts 192°
2026-04-27 13:31 23.38387 113.31168 59 ft 121 kts 195°
2026-04-27 13:31 23.37724 113.30981 58 ft 77 kts 195°
2026-04-27 13:32 23.37353 113.30885 58 ft 32 kts 192°
2026-04-27 13:32 23.37256 113.30861 58 ft 10 kts 192°
2026-04-27 13:32 23.37184 113.30806 58 ft 10 kts 240°
2026-04-27 13:32 23.37178 113.30722 58 ft 12 kts 278°
2026-04-27 13:33 23.37234 113.30653 58 ft 14 kts 359°
2026-04-27 13:33 23.37339 113.30669 58 ft 16 kts 12°
2026-04-27 13:33 23.37455 113.30697 58 ft 17 kts 12°
2026-04-27 13:33 23.37581 113.30731 58 ft 19 kts 16°
2026-04-27 13:34 23.37714 113.30774 58 ft 20 kts 17°
2026-04-27 13:34 23.37857 113.30818 58 ft 21 kts 14°
2026-04-27 13:34 23.38006 113.30835 58 ft 22 kts 339°
2026-04-27 13:34 23.38042 113.30729 58 ft 12 kts 258°
2026-04-27 13:35 23.38046 113.30628 58 ft 14 kts 282°
2026-04-27 13:35 23.38069 113.30512 58 ft 16 kts 282°
2026-04-27 13:35 23.38101 113.30386 58 ft 17 kts 284°
2026-04-27 13:35 23.38179 113.30297 58 ft 18 kts 357°
2026-04-27 13:36 23.38309 113.30308 58 ft 19 kts 19°
2026-04-27 13:36 23.38435 113.30357 58 ft 20 kts 19°
2026-04-27 13:36 23.38547 113.30395 58 ft 21 kts 13°
2026-04-27 13:36 23.38713 113.30440 58 ft 23 kts 14°
2026-04-27 13:37 23.38885 113.30489 58 ft 24 kts 14°
2026-04-27 13:37 23.39057 113.30523 58 ft 25 kts 13°
2026-04-27 13:37 23.39235 113.30573 58 ft 27 kts 14°
2026-04-27 13:37 23.39423 113.30629 58 ft 28 kts 15°
2026-04-27 13:38 23.39585 113.30660 58 ft 14 kts 19°
2026-04-27 13:38 23.39663 113.30682 58 ft 9 kts 343°
2026-04-27 13:38 23.39695 113.30631 58 ft 2 kts 286°
2026-04-27 13:38 23.39701 113.30610 58 ft 3 kts 286°
2026-04-27 13:39 23.39705 113.30596 58 ft 0 kts 285°